TimeEST,TemperatureF,Dew PointF,Humidity,Sea Level PressureIn,VisibilityMPH,Wind Direction,Wind SpeedMPH,Gust SpeedMPH,PrecipitationIn,Events,Conditions,WindDirDegrees,DateUTC
12:53 AM,39.9,26.1,58,29.90,10.0,WNW,13.8,24.2,N/A,,Overcast,300,2012-11-26 05:53:00
1:53 AM,39.9,23.0,51,29.92,10.0,WNW,16.1,23.0,0.00,,Overcast,290,2012-11-26 06:53:00
2:53 AM,39.9,25.0,55,29.92,10.0,WNW,12.7,-,N/A,,Overcast,290,2012-11-26 07:53:00
3:53 AM,37.9,27.0,65,29.94,10.0,WNW,10.4,-,N/A,,Clear,290,2012-11-26 08:53:00
4:53 AM,39.0,30.0,70,29.94,10.0,West,10.4,-,N/A,,Clear,280,2012-11-26 09:53:00
5:53 AM,39.0,30.0,70,29.96,10.0,WNW,12.7,-,N/A,,Clear,290,2012-11-26 10:53:00
6:53 AM,39.0,28.0,65,29.97,10.0,WNW,12.7,-,N/A,,Clear,290,2012-11-26 11:53:00
7:53 AM,39.0,27.0,62,30.00,10.0,WNW,9.2,-,N/A,,Clear,290,2012-11-26 12:53:00
8:53 AM,43.0,28.9,58,30.01,10.0,WNW,11.5,-,N/A,,Clear,290,2012-11-26 13:53:00
9:53 AM,44.1,30.0,58,30.02,10.0,West,12.7,-,N/A,,Mostly Cloudy,270,2012-11-26 14:53:00
10:53 AM,46.0,25.0,44,30.01,10.0,West,19.6,27.6,N/A,,Partly Cloudy,260,2012-11-26 15:53:00
11:53 AM,46.0,24.1,42,30.02,10.0,West,19.6,26.5,N/A,,Clear,260,2012-11-26 16:53:00
12:53 PM,46.0,26.1,46,30.04,10.0,West,16.1,25.3,N/A,,Clear,270,2012-11-26 17:53:00
1:53 PM,46.0,26.1,46,30.04,10.0,West,15.0,25.3,N/A,,Clear,280,2012-11-26 18:53:00
2:53 PM,46.0,25.0,44,30.06,10.0,West,10.4,-,N/A,,Clear,280,2012-11-26 19:53:00
3:53 PM,43.0,25.0,49,30.09,10.0,West,10.4,-,N/A,,Clear,280,2012-11-26 20:53:00
4:53 PM,41.0,24.1,51,30.12,10.0,WNW,8.1,-,N/A,,Clear,290,2012-11-26 21:53:00
5:53 PM,39.0,24.1,55,30.15,10.0,WNW,8.1,-,N/A,,Clear,290,2012-11-26 22:53:00
6:53 PM,37.9,24.1,57,30.17,10.0,WNW,6.9,-,N/A,,Clear,290,2012-11-26 23:53:00
7:53 PM,39.9,24.1,53,30.20,10.0,WNW,9.2,-,N/A,,Clear,300,2012-11-27 00:53:00
8:53 PM,39.0,24.1,55,30.22,10.0,WNW,5.8,-,N/A,,Clear,290,2012-11-27 01:53:00
9:53 PM,37.0,24.1,59,30.23,10.0,West,5.8,-,N/A,,Clear,280,2012-11-27 02:53:00
10:53 PM,36.0,27.0,70,30.24,10.0,WNW,6.9,-,N/A,,Clear,300,2012-11-27 03:53:00
11:53 PM,37.0,27.0,67,30.25,10.0,NNW,5.8,-,N/A,,Clear,330,2012-11-27 04:53:00